Regional Weather Roundup
Issued by NWS Sterling, VA

Home | Current Version | Previous Version | Graphics & Text | Print | Product List | Glossary On
Versions: 1 2 3 4 5 6 7 8 9 10 11 12 13 14 15 16 17 18 19 20 21 22 23 24 25 26 27 28 29 30 31 32 33 34 35 36 37 38 39 40 41 42 43 44 45 46 47 48 49 50
177
ASUS41 KLWX 190611
RWRLWX

REGIONAL WEATHER ROUNDUP
NATIONAL WEATHER SERVICE BALTIMORE MD/WASHINGTON DC
200 AM EDT SAT AUG 19 2017

Note: "FAIR" indicates few or no clouds below 12,000 feet
with no significant weather and/or obstructions to visibility.
 TC=TEMPERATURE CELSIUS

 * =Non NWS site. Station does not report precipitation (e.g. rain,
    snow, etc.), thunder, or fog.

DCZ001-MDZ009-015-VAZ040>042-051-053>054-190700-
WASHINGTON METRO

CITY           SKY/WX    TMP DP  RH WIND       PRES   REMARKS
WASHINGTON NAT CLOUDY    78  77  96 SW6       29.86F
DULLES         CLOUDY    76  76 100 S6        29.87F
ANDREWS AFB    CLOUDY    75  73  94 SW10      29.85F
FT BELVOIR     CLOUDY    76  75  95 CALM      29.87R
QUANTICO       CLOUDY    78  76  93 NW9       29.88R
COLLEGE PARK*  CLOUDY    76  74  95 CALM      29.84F
LEESBURG*      CLOUDY    77  77 100 SW3       29.89S
MANASSAS*      LGT RAIN  76  73  91 SW7       29.88S
GAITHERSBURG*  CLOUDY    75  74  96 W5        29.88F

$$

MDZ006>007-011-014-190700-
BALTIMORE METRO

CITY           SKY/WX    TMP DP  RH WIND       PRES   REMARKS
BWI AIRPORT    CLOUDY    75  75 100 CALM      29.84F
MD SCIENCE CTR   N/A     78  76  93 MISG      29.84F
MARTIN STATE   CLOUDY    77  77 100 SW3       29.85F
ANNAPOLIS      CLOUDY    77  77 100 W3        29.83F
FORT MEADE*    PTCLDY    72  72 100 CALM      29.87F

$$

MDZ012-015-019>023-190700-
MARYLAND EASTERN SHORE

CITY           SKY/WX    TMP DP  RH WIND       PRES   REMARKS
OCEAN CITY     MOCLDY    75  73  93 W6        29.87R
SALISBURY      CLOUDY    73  73 100 CALM      29.86R
BAY BRIDGE AP* CLOUDY    75  75 100 SW8       29.84F
CAMBRIDGE*     CLEAR     73  73 100 CALM      29.85R
EASTON*        MOCLDY    74  72  94 CALM      29.88S

$$

MDZ017>025-190700-
SOUTHERN MARYLAND

CITY           SKY/WX    TMP DP  RH WIND       PRES   REMARKS
PATUXENT RIVER CLOUDY    75  74  96 W9        29.84F
ST INIGOES     CLOUDY    77  75  93 S7        29.84F
LEONARDTOWN*   CLOUDY    73  72  94 W6        29.87S

$$

MDZ003>005-190700-
NORTH CENTRAL MARYLAND

CITY           SKY/WX    TMP DP  RH WIND       PRES   REMARKS
FREDERICK*     MOCLDY    75  75 100 CALM      29.89S
HAGERSTOWN APT CLEAR     76  65  68 W7        29.88S
WESTMINSTER*   PTCLDY    73  73 100 W6        29.87F FOG

$$

MDZ501>502-190700-
WESTERN MARYLAND

CITY           SKY/WX    TMP DP  RH WIND       PRES   REMARKS
OAKLAND*       PTCLDY    63  59  88 W7        29.99F
CUMBERLAND*    CLEAR     70  64  83 CALM      29.95S

$$

VAZ025>031-190700-
SHENANDOAH VALLEY

CITY           SKY/WX    TMP DP  RH WIND       PRES   REMARKS
WINCHESTER*    CLOUDY    73  64  73 W6        29.90S
FRONT ROYAL*   CLOUDY    73  72  94 W3        29.90S
LURAY*         CLOUDY    73  73 100 CALM      29.92S
NEW MARKET*    CLOUDY    72  71  97 CALM      29.92S
STAUNTON*      CLOUDY    72  69  91 CALM      29.96S
WAYNESBORO*    CLOUDY    74  68  81 W3        29.96S

$$

WVZ021-048>050-054>055-190700-
EASTERN WEST VIRGINIA PANHANDLE

CITY           SKY/WX    TMP DP  RH WIND       PRES   REMARKS
MARTINSBURG    PTCLDY    70  64  81 W7        29.88S
PETERSBURG*    PTCLDY    69  67  94 CALM      29.94S

$$

VAZ036>039-050-190700-
CENTRAL FOOTHILLS

CITY           SKY/WX    TMP DP  RH WIND       PRES   REMARKS
CHARLOTTESVILL CLOUDY    77  74  90 N3        29.89F
CULPEPER*      CLOUDY    75  74  96 CALM      29.89F
ORANGE*        CLOUDY    75  73  94 CALM      29.88F
GORDONSVILLE*  CLOUDY    76  76 100 CALM      29.88S
WARRENTON*     DRIZZLE   76  72  87 NW3       29.88F

$$

VAZ055>057-190700-
NORTH AND CENTRAL PIEDMONT

CITY           SKY/WX    TMP DP  RH WIND       PRES   REMARKS
FREDERICKSBRG* CLOUDY    76  76 100 CALM      29.86S
STAFFORD*      CLOUDY    75  75 100 NW8       29.91F

$$

NCZ024-NYZ072-PAZ021-071-VAZ022-071-190700-
OTHER REGIONAL OBSERVATIONS

CITY           SKY/WX    TMP DP  RH WIND       PRES   REMARKS
NEW YORK CITY  CLOUDY    74  72  93 W6        29.81F
PHILADELPHIA   CLOUDY    75  73  93 SW9       29.83S
PITTSBURGH     PTCLDY    68  65  90 W5        29.93S
ROANOKE        CLEAR     71  67  87 W6        29.99S
RICHMOND       LGT RAIN  74  74 100 SW6       29.87F
RALEIGH        TSTM      77  74  90 W6        29.95R

$$

ANZ530>537-190700-
MARINE OBSERVATIONS

STATION/POSITION TIME  TEMP    WIND        PRES
                       AIR SEA DIR/SP/G
                 (UTC) (F)     (DEG/KT/KT) (MB)
THOMAS PT LIGHT  0600   77 80  260/ 11/ 12   N/A
BALT KEY BRIDGE  0542   76     220/  4/  5 1010.3F
COVE POINT       0542   76     270/ 13/ 20 1011.2F
LEWISETTA        0542   75 81  230/  7/  9 1010.8F
SOLOMONS ISLAND  0542   76 81  300/  5/  7   N/A
PINEY POINT      0542          250/  4/  6   N/A

$$





USA.gov is the U.S. government's official web portal to all federal, state and local government web resources and services.